Location: Grasslands National Park East Block
(49.0708°N, 106.5295°W)
Time: 04:55:13
(UTC-06:00)

Vanguard 1 Rocket - Pass Details

Date: 23 September 2019
Orbit: 650 x 4226 km, 34.3° (Epoch: 20 October)

Event Time Altitude Azimuth Distance (km) Brightness Sun altitude
Rises 17:08:45 0° 221° (SW) 8,455 13.4 17.4°
Reaches altitude 10° 17:15:31 10° 214° (SW) 7,393 13.1 16.3°
Maximum altitude 17:36:19 37° 158° (SSE) 4,545 11.0 13.1°
Drops below altitude 10° 17:50:10 10° 99° (E) 5,036 10.7 10.9°
Sets 17:53:40 0° 91° (E) 5,620 10.8 10.3°
